Simultaneous Nadir Overpasses (SNOs) Predictions

Prediction of SNOs between METOP-B and NOAA-19 Satellite Orbit:

Table of predicted SNOs for the next 14.0 days since TLE Epoch: 5/25/2013
Index Date (METOP-B) Time (METOP-B) Lat,Lon (METOP-B) SZA (METOP-B ) Date (NOAA-19) Time (NOAA-19) Lat,Lon (NOAA-19) SZA (NOAA-19 ) Distance(km) Time Diff (sec)
1 06/03/2013 23:39:25 73.38, 178.76 50.98 06/03/2013 23:38:11 73.44, 178.42 51.06 12.36 74
2 06/04/2013 00:30:07 -73.34, -14.00 129.07 06/04/2013 00:29:07 -73.32, -14.04 129.08 3.00 60
3 06/04/2013 01:20:48 73.31, 153.26 50.90 06/04/2013 01:20:13 73.31, 153.20 50.91 2.11 35
4 06/04/2013 02:11:30 -73.27, -39.50 129.14 06/04/2013 02:11:11 -73.29, -39.49 129.12 1.98 19
5 06/04/2013 03:02:11 73.24, 127.77 50.83 06/04/2013 03:02:16 73.24, 127.85 50.82 2.82 5
6
